This is the latest recevied weather packets stored in our database for station/object XE2G-31. If no packets are shown the sender has not sent any weather packets the latest 10 day(s).
| Time | Temp. | Humidity | Pressure | Rain* | Wind** | Luminosity | Snow |
|---|---|---|---|---|---|---|---|
| 1777746360 | 15.56° C | 80% | 874 hPa | - | - | - | - |
| 1777745413 | 16.11° C | 79% | 873 hPa | - | - | - | - |
| 1777744467 | 16.67° C | 78% | 874 hPa | - | - | - | - |
| 1777743518 | 16.67° C | 76% | 874 hPa | - | - | - | - |
| 1777742571 | 16.11° C | 76% | 874 hPa | - | - | - | - |
| 1777741624 | 17.22° C | 76% | 874 hPa | - | - | - | - |
| 1777740677 | 17.22° C | 72% | 874 hPa | - | - | - | - |
| 1777739730 | 18.33° C | 73% | 874 hPa | - | - | - | - |
| 1777738783 | 17.22° C | 72% | 874 hPa | - | - | - | - |
| 1777737837 | 16.67° C | 78% | 874 hPa | - | - | - | - |
| 1777736890 | 16.11° C | 78% | 874 hPa | - | - | - | - |
| 1777734996 | 15.56° C | 81% | 873 hPa | - | - | - | - |
| 1777734049 | 15° C | 81% | 873 hPa | - | - | - | - |
| 1777733102 | 15° C | 82% | 873 hPa | - | - | - | - |
| 1777732156 | 15° C | 83% | 873 hPa | - | - | - | - |
| 1777731209 | 15° C | 83% | 873 hPa | - | - | - | - |
| 1777730262 | 15° C | 83% | 873 hPa | - | - | - | - |
| 1777729315 | 15° C | 84% | 873 hPa | - | - | - | - |
| 1777728368 | 15° C | 84% | 872 hPa | - | - | - | - |
| 1777727422 | 15° C | 84% | 872 hPa | - | - | - | - |
| 1777726475 | 15° C | 85% | 872 hPa | - | - | - | - |
| 1777725528 | 15° C | 86% | 872 hPa | - | - | - | - |
| 1777724581 | 15° C | 86% | 872 hPa | - | - | - | - |
| 1777723634 | 15° C | 85% | 871 hPa | - | - | - | - |
| 1777722687 | 15° C | 84% | 871 hPa | - | - | - | - |
* Rain since midnight (hover to see other rain measurements)
** Current wind speed in m/s (hover to see current wind gust speed)